Regional Weather Roundup
Issued by NWS Wakefield, VA

Home | Current Version | Previous Version | Graphics & Text | Print | Product List | Glossary On
Versions: 1 2 3 4 5 6 7 8 9 10 11 12 13 14 15 16 17 18 19 20 21 22 23 24 25 26 27 28 29 30 31 32 33 34 35 36 37 38 39 40 41 42 43 44 45 46 47 48 49 50
178
ASUS41 KAKQ 231415
RWRAKQ

REGIONAL WEATHER ROUNDUP
NATIONAL WEATHER SERVICE WAKEFIELD VA
1000 AM EDT FRI JUN 23 2017

Note: "fair" indicates few or no clouds below 12,000 feet with no
significant weather and/or obstructions to visibility. * = Denotes
station may not report precipitation (e.g., rain,snow,etc.),
thunder or fog.

VAZ042-051-052>054-056-231500-
NORTHERN VIRGINIA

CITY           SKY/WX    TMP DP  RH WIND       PRES   REMARKS
WASH NATIONAL  CLOUDY    78  74  87 SW16      29.84F
DULLES         CLOUDY    76  71  85 S14G22    29.83F
FORT BELVOIR   CLOUDY    77  72  85 S6        29.84F
QUANTICO       CLOUDY    79  74  84 SW10      29.85F
FREDERICKSBRG* PTSUNNY   78  76  92 SW18      29.86F
STAFFORD*      CLOUDY    77  74  91 SW7G18    29.90F
WARRENTON      CLOUDY    80  70  72 S12G20    29.84F
CULPEPER*      PTSUNNY   80  74  81 SW16      29.86F
MANASSAS*      CLOUDY    79  73  82 SW13G21   29.84F
LEESBURG*      CLOUDY    77  73  88 SW7       29.84F
WINCHESTER     CLOUDY    73  68  83 S10       29.83F
FRONT ROYAL*   PTSUNNY   77  72  83 SW8       29.83F
LURAY*         MOSUNNY   79  72  78 SW16      29.85F
$$

VAZ048-049-060>072-079>083-231500-
CENTRAL AND SOUTH CENTRAL VIRGINIA

CITY           SKY/WX    TMP DP  RH WIND       PRES   REMARKS
RICHMOND       CLOUDY    76  72  87 SW14      29.91F
CHESTERFIELD*  CLOUDY    75  72  90 SW8       29.92F
PETERSBURG*    CLOUDY    78  69  75 SW10      29.94F
HANOVER        PTSUNNY   77  71  82 SW15      29.91F
TAPPAHANNOCK*  MOSUNNY   76  76  97 S10G17    29.90F
QUINTON*       CLOUDY    75  75 100 SW7       29.91F
CHARLOTTSVILLE PTSUNNY   81  73  76 S15       29.87F
GORDONSVILLE*  CLOUDY    77  74  90 SW16      29.87F
ORANGE*        CLOUDY    75  72  88 S16G24    29.87F
LOUISA*          N/A    N/A N/A N/A MISG        N/A
BUMPASS*       CLOUDY    76  75  95 SW12G17   29.89F
FARMVILLE*     CLOUDY    76  72  85 SW8       29.91F
CREWE*         CLOUDY    76  72  87 SW8       29.93F
FORT PICKETT*  CLOUDY    76  72  87 SW12      29.94F
CHASE CITY*    CLOUDY    76  76  99 CALM      29.95F
CLARKSVILLE*   CLOUDY    73  73 100 SW10      29.95F
SOUTH HILL*    CLOUDY    75  74  94 S10       30.01F
LAWRENCEVILLE* PTSUNNY   77  73  87 MISG      29.95F
EMPORIA*       CLOUDY    77  72  83 S9G16     29.97F
$$

VAZ088>098-231500-
SOUTHEAST VIRGINIA

CITY           SKY/WX    TMP DP  RH WIND       PRES   REMARKS
NORFOLK        MOSUNNY   81  74  79 SW14      29.95F
VIRGINIA BEACH CLOUDY    79  72  79 SW12      29.95F
NORFOLK NAVAL  CLOUDY    80  73  79 SW10      29.96F
WEST POINT*    CLOUDY    76  73  88 S9        29.93F
SALUDA*        CLOUDY    75  75  98 S7        29.92F
NEWPORT NEWS   PTSUNNY   78  73  84 SW15      29.94F
LANGLEY AFB    CLOUDY    78  73  84 SW12      29.94F
FORT EUSTIS    PTSUNNY   78  72  81 SW6       29.92F
WILLIAMSBURG*  PTSUNNY   79  73  83 CALM      29.95F
HR EXEC AP*    FAIR      79  73  83 SW12      29.94F
FRANKLIN*      DRIZZLE   77  72  83 SW9       29.97F
US460-WAKEFLD  CLOUDY    79  72  79 SW9G18    29.95F
$$

VAZ020-022-025-037-045-231500-
WEST CENTRAL AND SOUTHWEST VIRGINIA

CITY           SKY/WX    TMP DP  RH WIND       PRES   REMARKS
STAUNTON*      CLOUDY    76  69  80 SW9       29.91F
WAYNESBORO*    PTSUNNY   78  72  82 SW14G21   29.92S
HOT SPRINGS VA CLOUDY    66  64  94 W20G26    30.03F
LYNCHBURG      CLOUDY    74  72  93 S10       29.94F
DANVILLE       CLOUDY    76  75  97 SW12      29.95F
SOUTH BOSTON*  CLOUDY    76  75  96 S9        29.95F
MARTINSVILLE   CLOUDY    75  72  88 SW5       29.98F
ROANOKE        NOT AVBL
BLACKSBURG     CLOUDY    74  70  86 W3        30.02F
DUBLIN*        CLOUDY    76  67  73 SW10      30.01S
MARION*        PTSUNNY   73  68  83 W8        30.05S
HILLSVILLE*    CLOUDY    70  65  84 S5        30.03F
RICHLANDS*     CLOUDY    68  66  94 W9        30.03F
WISE*          CLOUDY    70  70 100 SW20G25   30.02F
ABINGDON*      PTSUNNY   74  72  91 NW5       30.01F
$$

MDZ021>025-VAZ099-100-231500-
SOUTHERN MARYLAND AND THE DELMARVA PENINSULA

CITY           SKY/WX    TMP DP  RH WIND       PRES   REMARKS
PATUXENT RIVER CLOUDY    76  73  91 SW13G22   29.87F
BAY BRIDGE APT CLOUDY    75  72  88 S9G18     29.85F
LEONARDTOWN    CLOUDY    73  70  88 SW12G17   29.89F
DOVER          CLOUDY    75  75 100 S20       29.84F
GEORGETOWN     CLOUDY    74  71  91 S13       29.90F
EASTON         DRIZZLE   75  72  88 S9        29.90F
CAMBRIDGE      PTSUNNY   73  73 100 S6        29.88F
SALISBURY      LGT RAIN  75  74  96 SW12      29.90F
OCEAN CITY     CLOUDY    74  72  93 SW8       29.91F
WALLOPS ISLAND LGT RAIN  75  74  96 S8        29.92F
ACCOMACK*      CLOUDY    76  73  91 S6        29.93F
$$

NCZ012>017-030>032-231500-
NORTH CENTRAL AND EASTERN NORTH CAROLINA

CITY           SKY/WX    TMP DP  RH WIND       PRES   REMARKS
ROANOKE RAPIDS PTSUNNY   77  73  88 SW10      29.98F
RALEIGH        CLOUDY    77  74  90 SW14      29.99F
ELIZABETH CITY CLOUDY    80  77  90 SW12      29.99S
AHOSKIE*       LGT RAIN  77  74  92 S3        29.98F
EDENTON*       PTSUNNY   82  75  80 SW10      30.00F
CURRITUCK*     PTSUNNY   80  76  88 SW8       29.99F
KILL DEVIL HLS MOSUNNY   80  74  81 SW8G16    29.99F
MANTEO         PTSUNNY   80  74  83 W14       30.01S
CAPE HATTERAS  CLOUDY    82  76  81 SW10      30.03F
TARBORO*       NOT AVBL
GOLDSBORO      PTSUNNY   80  80 100 SW13      29.99F
WASHINGTON     CLOUDY    80  74  83 SW10      30.01F
GREENVILLE     LGT RAIN  81  77  89 SW12      30.02F
NEW BERN       CLOUDY    82  77  84 SW10      30.03F
WILMINGTON     CLOUDY    83  76  79 SW15      30.04F
$$

VAZ048-231500-
ELSEWHERE

CITY           SKY/WX    TMP DP  RH WIND       PRES   REMARKS
HARRISBURG PA  CLOUDY    74  71  91 S8        29.77F
BALTIMORE      CLOUDY    75  73  93 SW7       29.83F
ANNAPOLIS      CLOUDY    76  75  97 S9        29.84F
ANDREWS AFB    CLOUDY    75  72  88 SW14G24   29.84F
PHILADELPHIA   LGT RAIN  77  71  82 SW18G31   29.84S
HENDERSON NC   CLOUDY    72  71  95 SW12G17   29.98F
GREENSBORO     CLOUDY    78  76  93 SW10G21   29.97F
ROCKY MOUNT    PTSUNNY   77  76  96 SW9       29.99F
$$

VAZ100-231500-
MARINE

STATION/POSITION TIME  TEMP    WIND        PRES    WAVE   SWELL
                       AIR SEA DIR/SP/G            HT/PER HT/PER
                 (UTC) (F)     (DEG/KT/KT) (MB)    (FT/S) (FT/S)
BRANDYWINE LGT   1348   71     220/ 13/ 14 1012.2F
CAPE MAY NJ      1348   70 67  230/ 13/ 15 1012.2R
LEWES DE         1348   73 70  210/  5/  9 1012.1F
15NM E FENWICK I 1250   71 68  220/ 14/ 14 1013.4    2/ 7   2/ 7
OCEAN-CITY-INLET 1342   72 65  240/  7/  9 1013.4F
WACHAPREAGUE VA  1348   76 77  210/  6/ 11 1013.5F
THOMAS POINT MD  1400   75 78  210/ 17/ 20   N/A
GOOSES REEF MD   1400   77 78  220/ 16/ 19 1012.1    2/ 3
COVE POINT MD    1348   75     220/ 17/ 23 1012.1F
SOLOMONS ISLAND  1348   76 77  220/ 16/ 22   N/A
BISHOPS HEAD MD  1348   77 78  200/ 15/ 17 1012.3F
PINEY POINT MD   1348          230/ 13/ 16   N/A
POTOMAC MD       1350   77     250/ 16/ 19 1011.5F
CAMBRIDGE MD     1342   74 81              1012.2F
LEWISETTA VA     1348   76 78  230/ 13/ 16 1011.9F
RAPPAHANNOCK LGT 1348          180/ 14/ 17 1014.0F
STINGRAY PT      1350   76     220/ 10/ 14 1013.2F
YORK RVR RNG VA  1348   77     230/ 12/ 15 1013.9F
YORKTOWN VA      1348   77 77  230/ 11/ 14 1013.2F
JAMESTOWN VA     1350   77     210/ 10/ 12   N/A
DOMINION TERM VA 1348   77     230/ 11/ 12 1014.2F
KIPTOPEKE VA     1348      76  190/ 10/ 10   N/A
CHES BAY BRIDGE  1348   77 72  230/ 14/ 15 1013.9F
CAPE HENRY VA    1348   78     200/  7/ 10   N/A
WILLOUBY STN VA  1348   78     230/ 15/ 16 1013.9F
S CRANEY ISL VA  1348   78     210/  7/ 12 1014.1F
CAPE HENRY BUOY  1330      72                N/A     2/ 8
1ST LANDING BUOY 1400   77 74              1014.2    1/ 3
CAPE CHARLES BUO 1351      68                N/A     2/ 9
64NM E OF VA BCH 1250   73 72  230/  8/  8 1015.8    3/ 8   3/ 8
DUCK PIER NC     1348   79 63  240/ 12/ 15 1015.4F
44100 DUCK FRF   1305      68                N/A     2/ 8
OREGON INLET NC  1348          220/ 13/ 16   N/A
HATTERAS NC      1348   81 79  240/  6/ 13 1016.8S
DIAMOND SHLS NC  1250   80 80  240/ 14/ 16 1017.0    3/ 8   2/ 8
CAPE LOOKOUT NC  1300   81     240/  8/ 11 1016.9S
$$




USA.gov is the U.S. government's official web portal to all federal, state and local government web resources and services.